Monticello Municipal Ellis Field
KLLQ : rendu visible

Aérodrome :











RETROUVEZ-NOUS SUR...

 
LOGIN :

S'inscrire | Disclaimer

   EN    FR    IT 

 









Légende :    VFR   VFR Marginal   IFR   IFR Intensif   IFR Très Intensif
Visi : 
Plafond : 
>= 8 km
>= 3000ft
5 à 8 km
1000 à 3000 ft
1500m à 5 km
500 à 1000 ft
800 à 1500m
200 à 500 ft
< 800m
< 200 ft
Symboles :   Orages  Brouillard  Fortes neiges  Fortes précipitations  Vent > 20 kt






- Altitude de l'aérodrome : 270 ft


KLLQ - Monticello Municipal Ellis Field

DERNIER METAR :
  • 021553Z AUTO 14009KT 10SM CLR 19/07 A3010 RMK AO2 SLP190 T01940072

METARs EXPIRÉS :
  • 021453Z AUTO 12005KT 10SM CLR 17/07 A3009 RMK AO2 SLP189 T01670072 50006
  • 021353Z AUTO 09006KT 10SM CLR 14/09 A3010 RMK AO2 SLP190 T01440094

TAF KLLQ
Valide du 02 à 12h jusqu'au 03 à 12h UTC


021130Z 0212/0312 09003KT P6SM OVC250
FM021500 14009KT P6SM BKN250
FM030000 16004KT P6SM OVC150
FM030900 16003KT P6SM VCSH OVC080



MET'MAP, la Météo Aéronautique d'un coup d'oeil ! - Copyright ORBIFLY Décembre 2007 - Disclaimer

ORBIFLY MET'MAP TEAM :

Programmation & Développement : Alexandra Zaïnal
Sur une idée originale de : Baudouin d'Aumeries
Assistance à la programmation : Marc-Olivier Méhu
Soutien technique & logistique : Manuel Goepfert

Contact : metmap@orbifly.com




SOURCES & CREDITS :

   NOAA       Earth
Advisory